Weather History for Covington, KY

Change the Weather History Date:

Saturday, January 18, 2014

  Actual Average Record
Temperature  
Mean Temperature 21 °F 31 °F  
Max Temperature 29 °F 39 °F 70 °F (1929)
Min Temperature 12 °F 23 °F -25 °F (1977)
Degree Days  
Heating Degree Days 44 34  
Month to date heating degree days 673 612  
Since 1 July heating degree days 2624 2531  
Cooling Degree Days 0 0  
Month to date cooling degree days 0 0  
Year to date cooling degree days 0 0  
Moisture  
Dew Point 16 °F    
Average Humidity 76    
Maximum Humidity 92    
Minimum Humidity 60    
Precipitation  
Precipitation 0.06 in 0.09 in 2.97 in (1876)
Month to date precipitation 2.36 1.76  
Year to date precipitation 2.36 1.76  
Snow  
Snow 1.10 in 0.20 in 1.70 in (1915)
Month to date snowfall 9.5 3.5  
Since 1 July snowfall 22.3 9.1  
Snow Depth 1.00 in    
Sea Level Pressure  
Sea Level Pressure 29.93 in    
Wind  
Wind Speed 9 mph (South)    
Max Wind Speed 17 mph    
Max Gust Speed 22 mph    
Visibility 6 miles    
Events Fog , Snow    
T = Trace of Precipitation, MM = Missing Value Source: NWS Daily Summary

Daily Weather History Graph

Daily Weather History Graph

Search for Another Location

Airport:

Trip Planner

Search our weather history database for the weather conditions in past years. The results will help you decide how hot, cold, wet, or windy it might be!

Date:

Astronomy

Jan. 18, 2014 Rise Set
Actual Time 7:54 AM EST 5:43 PM EST
Civil Twilight 7:25 AM EST 6:12 PM EST
Nautical Twilight 6:53 AM EST 6:45 PM EST
Astronomical Twilight 6:21 AM EST 7:17 PM EST
Moon 8:23 PM EST (1/18) 8:55 AM EST (1/18)
Length of Visible Light 10h 47m
Length of Day
9h 48m
Waning Gibbous, 94% of the Moon is Illuminated
Jan 18
Waning Gibbous
Jan 24
Last Quarter
Jan 30
New
Feb 6
First Quarter
Feb 14
Full

Hourly Weather History & Observations

Time (EST) Temp. Windchill Dew Point Humidity Pressure Visibility Wind Dir Wind Speed Gust Speed Precip Events Conditions
12:52 AM 12.9 °F 2.6 °F 6.1 °F 74% 30.08 in 10.0 mi WSW 6.9 mph - N/A   Overcast
1:52 AM 12.9 °F 5.2 °F 8.1 °F 81% 30.07 in 5.0 mi SW 4.6 mph - 0.00 in Snow Light Snow
2:52 AM 14.0 °F 2.9 °F 8.1 °F 77% 30.07 in 8.0 mi SW 8.1 mph - 0.00 in   Overcast
3:52 AM 14.0 °F 3.9 °F 8.1 °F 77% 30.07 in 10.0 mi SW 6.9 mph - N/A   Overcast
4:52 AM 14.0 °F 6.5 °F 8.1 °F 77% 30.06 in 8.0 mi SW 4.6 mph - 0.00 in Snow Light Snow
5:52 AM 15.1 °F 6.4 °F 9.0 °F 77% 30.05 in 8.0 mi SSW 5.8 mph - 0.00 in Snow Light Snow
6:52 AM 14.0 °F 6.5 °F 10.0 °F 84% 30.06 in 9.0 mi SSW 4.6 mph - 0.00 in Snow Light Snow
7:52 AM 16.0 °F 6.3 °F 10.9 °F 81% 30.05 in 6.0 mi SSW 6.9 mph - 0.00 in Snow Light Snow
8:14 AM 15.8 °F 4.2 °F 10.4 °F 79% 30.02 in 7.0 mi SW 9.2 mph - 0.00 in Snow Light Snow
8:52 AM 17.1 °F 7.6 °F 12.0 °F 81% 30.07 in 4.0 mi SSW 6.9 mph - 0.00 in Snow Light Snow
9:28 AM 17.6 °F 7.3 °F 12.2 °F 79% 30.02 in 2.0 mi SSW 8.1 mph - 0.00 in Snow Light Snow
9:52 AM 18.0 °F 6.9 °F 12.9 °F 81% 30.07 in 2.0 mi SW 9.2 mph - 0.00 in   Haze
9:56 AM 17.6 °F 5.0 °F 12.2 °F 79% 30.03 in 6.0 mi SW 11.5 mph - N/A   Haze
10:38 AM 19.4 °F 9.5 °F 12.2 °F 74% 30.02 in 6.0 mi SW 8.1 mph - N/A   Haze
11:52 AM 21.9 °F 9.8 °F 12.9 °F 68% 30.04 in 10.0 mi SSW 12.7 mph 20.7 mph N/A   Mostly Cloudy
12:52 PM 24.1 °F 13.1 °F 12.9 °F 62% 29.98 in 10.0 mi South 11.5 mph - N/A   Overcast
1:52 PM 25.0 °F 13.6 °F 12.9 °F 60% 29.92 in 10.0 mi South 12.7 mph - N/A   Overcast
2:52 PM 26.1 °F 14.0 °F 15.1 °F 63% 29.90 in 10.0 mi South 15.0 mph - N/A   Overcast
3:52 PM 26.1 °F 16.2 °F 16.0 °F 66% 29.90 in 10.0 mi SSE 10.4 mph - N/A   Overcast
4:08 PM 24.8 °F 12.9 °F 15.8 °F 69% 29.87 in 3.0 mi South 13.8 mph - 0.00 in Snow Light Snow
4:11 PM 24.8 °F 12.4 °F 17.6 °F 74% 29.87 in 1.8 mi SSE 15.0 mph - 0.00 in Snow Light Snow
4:34 PM 24.8 °F 11.9 °F 19.4 °F 80% 29.84 in 2.0 mi SE 16.1 mph - 0.00 in Snow Light Snow
4:39 PM 24.8 °F 12.9 °F 19.4 °F 80% 29.84 in 4.0 mi SE 13.8 mph - 0.00 in   Haze
4:52 PM 25.0 °F 13.1 °F 19.0 °F 78% 29.87 in 10.0 mi SE 13.8 mph - 0.00 in   Overcast
5:09 PM 24.8 °F 12.9 °F 19.4 °F 80% 29.83 in 2.0 mi SE 13.8 mph - 0.00 in Snow Light Snow
5:19 PM 24.8 °F 13.4 °F 19.4 °F 80% 29.83 in 1.5 mi SE 12.7 mph - 0.00 in Snow Light Snow
5:27 PM 24.8 °F 12.9 °F 19.4 °F 80% 29.83 in 0.5 mi SE 13.8 mph 20.7 mph 0.00 in Fog , Snow Snow
5:52 PM 24.1 °F 13.1 °F 21.0 °F 88% 29.86 in 0.8 mi SE 11.5 mph - 0.01 in Snow Light Snow
6:26 PM 24.8 °F 14.0 °F 21.2 °F 86% 29.83 in 1.0 mi SSE 11.5 mph - 0.02 in Snow Light Snow
6:52 PM 25.0 °F 15.5 °F 21.9 °F 88% 29.87 in 1.0 mi SSE 9.2 mph - 0.02 in Snow Light Snow
7:10 PM 24.8 °F 14.6 °F 21.2 °F 86% 29.83 in 1.0 mi SSE 10.4 mph - 0.01 in Snow Light Snow
7:52 PM 25.0 °F 15.5 °F 23.0 °F 92% 29.85 in 1.0 mi SSE 9.2 mph - 0.03 in Snow Light Snow
8:00 PM 24.8 °F 15.3 °F 23.0 °F 93% 29.82 in 2.5 mi SSE 9.2 mph - 0.00 in Snow Light Snow
8:07 PM 24.8 °F 14.6 °F 23.0 °F 93% 29.81 in 4.0 mi SSE 10.4 mph - 0.00 in Snow Light Snow
8:52 PM 26.1 °F 17.6 °F 23.0 °F 88% 29.83 in 5.0 mi SE 8.1 mph - 0.00 in Snow Light Snow
9:52 PM 26.1 °F 17.6 °F 23.0 °F 88% 29.81 in 4.0 mi SSE 8.1 mph - 0.00 in Snow Light Snow
10:24 PM 26.6 °F 19.1 °F 23.0 °F 86% 29.77 in 9.0 mi South 6.9 mph - 0.00 in   Overcast
10:52 PM 27.0 °F 20.5 °F 21.9 °F 81% 29.79 in 10.0 mi South 5.8 mph - 0.00 in   Overcast
11:52 PM 28.9 °F 23.9 °F 21.9 °F 75% 29.78 in 10.0 mi SSW 4.6 mph - N/A   Overcast